TimeCDT,TemperatureF,Dew PointF,Humidity,Sea Level PressureIn,VisibilityMPH,Wind Direction,Wind SpeedMPH,Gust SpeedMPH,PrecipitationIn,Events,Conditions,WindDirDegrees,DateUTC
12:56 AM,23.0,20.1,89,30.37,10.0,Calm,Calm,-,N/A,,Clear,0,2012-10-29 05:56:00
1:56 AM,22.1,19.0,88,30.37,10.0,Calm,Calm,-,N/A,,Clear,0,2012-10-29 06:56:00
2:56 AM,22.1,19.0,88,30.37,10.0,Calm,Calm,-,N/A,,Clear,0,2012-10-29 07:56:00
3:56 AM,21.0,19.0,92,30.37,10.0,Calm,Calm,-,N/A,,Clear,0,2012-10-29 08:56:00
5:56 AM,20.1,18.1,92,30.38,10.0,Calm,Calm,-,N/A,,Clear,0,2012-10-29 10:56:00
6:56 AM,20.1,18.1,92,30.40,10.0,Calm,Calm,-,N/A,,Clear,0,2012-10-29 11:56:00
7:56 AM,20.1,18.1,92,30.41,10.0,Calm,Calm,-,N/A,,Clear,0,2012-10-29 12:56:00
8:56 AM,30.0,25.2,82,30.40,10.0,Calm,Calm,-,N/A,,Clear,0,2012-10-29 13:56:00
9:56 AM,36.9,26.1,65,30.39,10.0,Calm,Calm,-,N/A,,Clear,0,2012-10-29 14:56:00
11:56 AM,45.0,24.1,44,30.37,10.0,NE,6.9,-,N/A,,Clear,50,2012-10-29 16:56:00
12:56 PM,45.9,21.0,37,30.35,10.0,Calm,Calm,-,N/A,,Clear,0,2012-10-29 17:56:00
1:56 PM,47.8,19.0,32,30.32,10.0,NNW,8.1,-,N/A,,Clear,340,2012-10-29 18:56:00
2:56 PM,48.9,18.1,30,30.30,10.0,North,10.4,-,N/A,,Clear,360,2012-10-29 19:56:00
3:56 PM,48.9,20.1,32,30.29,10.0,North,6.9,-,N/A,,Clear,10,2012-10-29 20:56:00
4:56 PM,47.8,21.0,35,30.28,10.0,NNW,8.1,-,N/A,,Clear,340,2012-10-29 21:56:00
5:56 PM,45.0,22.1,40,30.27,10.0,Calm,Calm,-,N/A,,Clear,0,2012-10-29 22:56:00
7:56 PM,41.0,23.0,49,30.26,10.0,Calm,Calm,-,N/A,,Clear,0,2012-10-30 00:56:00
8:56 PM,39.9,24.1,53,30.25,10.0,Calm,Calm,-,N/A,,Clear,0,2012-10-30 01:56:00
9:56 PM,39.9,24.1,53,30.23,10.0,North,6.9,-,N/A,,Clear,10,2012-10-30 02:56:00
10:56 PM,38.8,25.2,58,30.22,10.0,Calm,Calm,-,N/A,,Clear,0,2012-10-30 03:56:00
11:56 PM,36.9,25.2,63,30.20,10.0,Calm,Calm,-,N/A,,Clear,0,2012-10-30 04:56:00